Regional Weather Roundup
Issued by NWS

Home | Current Version | Previous Version | Graphics & Text | Print | Product List | Glossary Off
Versions: 1 2 3 4 5 6 7 8 9 10 11 12 13 14 15 16 17 18 19 20 21 22 23 24 25 26 27 28 29 30 31 32 33 34 35 36 37 38 39 40 41 42 43 44 45 46 47 48 49 50

000
ASUS43 KLSX 271407
RWRMO
WEATHER SUMMARY FOR MISSOURI
NATIONAL WEATHER SERVICE SPRINGFIELD MO
900 AM CDT THU JUL 27 2017

NOTE: "FAIR" INDICATES FEW OR NO CLOUDS BELOW 12,000 FEET WITH NO
       SIGNIFICANT WEATHER AND/OR OBSTRUCTIONS TO VISIBILITY.
       CURRENT SKY AND/OR WEATHER CONDITIONS ARE NOT AVAILABLE FOR
       CHILLICOTHE AND FARMINGTON.

MOZ001>031-035>038-043-044-053-054-271500-
...NORTHERN AND WESTERN MISSOURI...

CITY           SKY/WX    TMP DP  RH WIND       PRES   REMARKS
KANSAS CTY INT DRIZZLE   76  74  93 NE9       29.99R
KANSAS C DTWN  CLOUDY   N/A N/A N/A CALM      29.97R
LEE`S SUMMIT   CLOUDY    75  75 100 W3        29.99R
ST JOSEPH      CLOUDY    75  73  93 NE10      29.99R
CHILLICOTHE      N/A     77  75  93 N6        29.98S
KIRKSVILLE     CLOUDY    76  73  91 N7        29.98S

$$
MOZ066>068-077>081-088>096-101>105-271500-
...SOUTHWEST MISSOURI...

CITY           SKY/WX    TMP DP  RH WIND       PRES   REMARKS
SPRINGFIELD    HVY RAIN  73  73 100 W3        30.06R FOG
JOPLIN         CLOUDY    77  75  93 CALM      30.02R
BRANSON        LGT RAIN  75  72  88 CALM      30.05R

$$
MOZ032>034-039>042-045>050-055>058-069>072-271500-
...CENTRAL MISSOURI...

CITY           SKY/WX    TMP DP  RH WIND       PRES   REMARKS
COLUMBIA       LGT RAIN  74  73  97 CALM      29.98R FOG
JEFFERSON CITY LGT RAIN  75  75 100 CALM      29.96F
ROLLA          LGT RAIN  72  72 100 SW8       30.00F FOG
SEDALIA        CLOUDY    77  76  96 SW9       29.98S
WHITEMAN AFB   CLOUDY    74  74  99 W10       29.97R
WARRENSBURG    CLOUDY    72  72 100 SW3       29.98R
OSAGE BEACH    RAIN      73  72  96 SW5       29.99R FOG

$$
MOZ051-052-059>065-271500-
...EAST CENTRAL MISSOURI...

CITY           SKY/WX    TMP DP  RH WIND       PRES   REMARKS
ST LOUIS INTL  LGT RAIN  78  74  87 W5        29.98S
SPIRIT OF STL  LGT RAIN  77  77 100 S3        29.96S
ST CHARLES     RAIN      75  75 100 W5        29.96R FOG

$$
MOZ072>076-082>087-097>100-106>115-271500-
...SOUTH CENTRAL AND SOUTHEAST MISSOURI...

CITY           SKY/WX    TMP DP  RH WIND       PRES   REMARKS
CAPE GIRARDEAU CLOUDY    80  75  84 W7        29.97S
FARMINGTON     LGT RAIN  78  73  84 W3        30.01F
POPLAR BLUFF   CLOUDY    81  76  84 SW8       29.98S
WEST PLAINS    LGT RAIN  75  72  90 W5        30.06R FOG

$$




USA.gov is the U.S. government's official web portal to all federal, state and local government web resources and services.